OPS 4682 DEB, 38377

Orbit data source: Space-Track

OPS 4682 DEB, 38377 is space debris in LEO originally from a launch on Sat, 03 Apr 1965 UTC launched from the Air Force Western Test Range (AFWTR). Debris objects in space refer to the collection of defunct objects orbiting the Earth. Examples of debris include non-operational satellites, rocket bodies, and fragments generated from explosions, collisions, or faulty payload assembly.

Loading next visibility...
Identifier
38377, 1965-027CE
Orbit
LEO
Country
Flag of USUS
Related business
Manufacturer
Unknown
Mission
Spacecraft
Bus & Motor
Unknown
Mass
Unknown
Launch date (UTC)
1965-04-03 (61 years ago)
Launch vehicle
Unknown
Launch site
Air Force Western Test Range (AFWTR)
Object type
Payload
Rocket body
Debris
Shape & HBR
Unknown shape, 0.1 m
Radar Cross Section
Small (<0.1 m²)

Expand to show TLE details & history
Last TLE update: 1 day ago

TLE from 1 day ago
0 OPS 4682 DEB
1 38377U 65027CE  26118.94593795 -.00000104  00000-0 -38823-3 0  9991
2 38377  90.2533  10.2077 0033642 241.9322 117.8395 12.96642567597722
Epoch: 2026-04-28T22:42Z
TLE epoch observation values (Epoch: 2026-04-28T22:42:09.038Z)
Latitude
-0.00006°
Longitude
172.75608°
Altitude
1,290.242 km
Speed
7.205 km/s
True Right ascension
00h 40m 49s
True Declination
0° 00' 00"
Sunlit
Object was in daylight at epoch
Visualization orbit readout
Latitude
Unknown
Longitude
Unknown
Altitude
Unknown
Speed
Unknown
Apparent Right ascension
Unknown
Apparent Declination
Unknown
Sunlit
N/A
Visualization observer readout
Local Sidereal Time
05:44:34
Azimuth
Unknown
Elevation
Unknown
Doppler factor
Unknown
Orbital elements
Apogee altitude
1,298.14 km
Perigee altitude
1,246.664 km
Semi-major axis
7,650.539 km
Eccentricity
0.00336
Inclination
90.2533°
RAAN
10.2077°
Arg. of periapsis
241.9322°
True anomaly
118.17972°
Mean anomaly
117.8395°
Eccentric anomaly
118.00968°
Mean motion
3.24343 °/min
Orbital period
110.99 mins
BSTAR
-0.00038823
Loading maneuver chart data...
Computing Atmospheric mass density...
Loading historical data...
Loading historical data...
Loading historical data...
Loading historical data...
Loading historical data...
Loading historical data...
Loading historical data...

Documentation

Showing up to 5 results
|